Tracking 20942 objects as of 12-Jul-2020
HD Live streaming from Space Station
objects crossing your sky now

STARLINK 1038

Track STARLINK 1038 now!
10-day predictions
STARLINK 1038 is classified as:


NORAD ID: 44743
Int'l Code: 2019-074AG
Perigee: 556.0 km
Apogee: 558.0 km
Inclination: 53.0 °
Period: 95.6 minutes
Semi major axis: 6927 km
RCS: Unknown
Launch date: November 11, 2019
Source: United States (US)
Launch site: AIR FORCE EASTERN TEST RANGE (AFETR)
aabbcc
Your satellite tracking list
Your tracking list is empty




NASA's NSSDC Master Catalog

Two Line Element Set (TLE):
1 44743U 19074AG  20193.91667824 +.00175323 +00000-0 +11768-1 0  9996
2 44743 053.0005 144.7373 0001464 100.6014 289.3714 15.05541889001767
Source of the keplerian elements: AFSPC